Weather History for Abingdon, VA

Change the Weather History Date:

Saturday, November 5, 2011

  Actual Average (KTRI) Record (KTRI)
Temperature  
Mean Temperature 47 °F 50 °F  
Max Temperature 59 °F 63 °F 79 °F (1948)
Min Temperature 35 °F 37 °F 18 °F (1991)
Degree Days  
Heating Degree Days 18 15  
Month to date heating degree days 72  
Since 1 July heating degree days 407  
Cooling Degree Days 0 0  
Month to date cooling degree days 0  
Year to date cooling degree days 980  
Moisture  
Dew Point 30 °F    
Average Humidity 56    
Maximum Humidity 93    
Minimum Humidity 29    
Precipitation  
Precipitation 0.00 in 0.09 in 1.20 in (1938)
Month to date precipitation 0.45  
Year to date precipitation 34.99  
Snow  
Snow 0.00 in 0.00 in - ()
Month to date snowfall 0.0  
Since 1 July snowfall 0.1  
Since 1 September snowfall 0.1  
Snow Depth -    
Sea Level Pressure  
Sea Level Pressure 30.25 in    
Wind  
Wind Speed 5 mph (East)    
Max Wind Speed 18 mph    
Max Gust Speed 21 mph    
Visibility 9 miles    
Events      
T = Trace of Precipitation, MM = Missing Value Source: NWS Daily Summary

Daily Weather History Graph

Daily Weather History Graph

Search for Another Location

Airport:

Trip Planner

Search our weather history database for the weather conditions in past years. The results will help you decide how hot, cold, wet, or windy it might be!

Date:

Astronomy

Nov. 05, 2011 Rise Set
Actual Time 7:55 AM EDT 6:27 PM EDT
Civil Twilight 7:28 AM EDT 6:54 PM EDT
Nautical Twilight 6:57 AM EDT 7:25 PM EDT
Astronomical Twilight 6:27 AM EDT 7:55 PM EDT
Moon 3:38 PM EDT (11/5) 3:10 AM EDT (11/5)
Length of Visible Light 11h 25m
Length of Day
10h 31m
Waxing Gibbous, 78% of the Moon is Illuminated
Nov 5
Waxing Gibbous
Nov 10
Full
Nov 18
Last Quarter
Nov 25
New
Dec 2
First Quarter

Hourly Weather History & Observations

Time (EDT) Temp. Windchill Dew Point Humidity Pressure Visibility Wind Dir Wind Speed Gust Speed Precip Events Conditions
12:15 AM 41.0 °F - 35.6 °F 81% 30.17 in 10.0 mi Calm Calm - N/A   Clear
12:55 AM 39.2 °F - 35.6 °F 87% 30.18 in 7.0 mi Calm Calm - N/A   Clear
1:15 AM 39.2 °F - 35.6 °F 87% 30.17 in 7.0 mi Calm Calm - N/A   Clear
1:55 AM 37.4 °F - 35.6 °F 93% 30.17 in 5.0 mi Calm Calm - N/A   Clear
2:15 AM 37.4 °F - 33.8 °F 87% 30.17 in 7.0 mi Calm Calm - N/A   Clear
2:35 AM 37.4 °F - 35.6 °F 93% 30.18 in 5.0 mi Calm Calm - N/A   Clear
2:55 AM 35.6 °F - 33.8 °F 93% 30.17 in 5.0 mi Calm Calm - N/A   Clear
3:35 AM 37.4 °F - 35.6 °F 93% 30.17 in 5.0 mi Calm Calm - N/A   Clear
3:55 AM 35.6 °F - 33.8 °F 93% 30.17 in 5.0 mi Calm Calm - N/A   Clear
4:15 AM 35.6 °F - 33.8 °F 93% 30.17 in 5.0 mi Calm Calm - N/A   Clear
4:35 AM 35.6 °F - 33.8 °F 93% 30.17 in 5.0 mi Calm Calm - N/A   Clear
5:15 AM 37.4 °F 33.8 °F 35.6 °F 93% 30.18 in 7.0 mi East 4.6 mph - N/A   Clear
5:55 AM 37.4 °F 32.1 °F 32.0 °F 81% 30.20 in 10.0 mi East 6.9 mph - N/A   Clear
6:35 AM 41.0 °F 35.8 °F 32.0 °F 70% 30.22 in 10.0 mi East 8.1 mph - N/A   Clear
7:35 AM 37.4 °F 33.8 °F 30.2 °F 75% 30.25 in 10.0 mi SE 4.6 mph - N/A   Clear
7:55 AM 37.4 °F 33.8 °F 30.2 °F 75% 30.26 in 10.0 mi South 4.6 mph - N/A   Clear
8:15 AM 37.4 °F 33.8 °F 28.4 °F 70% 30.27 in 10.0 mi ESE 4.6 mph - N/A   Clear
8:35 AM 37.4 °F 31.4 °F 28.4 °F 70% 30.28 in 10.0 mi East 8.1 mph - N/A   Clear
8:55 AM 41.0 °F 34.7 °F 28.4 °F 61% 30.29 in 10.0 mi East 10.4 mph - N/A   Clear
9:35 AM 42.8 °F 35.1 °F 28.4 °F 57% 30.31 in 10.0 mi East 16.1 mph 20.7 mph N/A   Clear
9:55 AM 42.8 °F 34.5 °F 26.6 °F 53% 30.32 in 10.0 mi East 18.4 mph - N/A   Clear
10:15 AM 44.6 °F 38.4 °F 28.4 °F 53% 30.32 in 10.0 mi ESE 12.7 mph - N/A   Clear
10:35 AM 44.6 °F 38.4 °F 28.4 °F 53% 30.32 in 10.0 mi ESE 12.7 mph - N/A   Clear
10:55 AM 46.4 °F 41.1 °F 28.4 °F 50% 30.32 in 10.0 mi East 11.5 mph - N/A   Clear
11:15 AM 46.4 °F 41.1 °F 28.4 °F 50% 30.32 in 10.0 mi ESE 11.5 mph - N/A   Clear
11:35 AM 48.2 °F - 28.4 °F 46% 30.32 in 10.0 mi East 11.5 mph - N/A   Clear
12:15 PM 50.0 °F - 28.4 °F 43% 30.32 in 10.0 mi East 10.4 mph - N/A   Clear
12:35 PM 51.8 °F - 26.6 °F 38% 30.31 in 10.0 mi East 11.5 mph - N/A   Clear
12:55 PM 51.8 °F - 28.4 °F 41% 30.30 in 10.0 mi East 9.2 mph - N/A   Clear
1:15 PM 53.6 °F - 26.6 °F 35% 30.30 in 10.0 mi ESE 8.1 mph - N/A   Clear
1:35 PM 55.4 °F - 28.4 °F 36% 30.29 in 10.0 mi SE 6.9 mph - N/A   Clear
1:55 PM 55.4 °F - 26.6 °F 33% 30.28 in 10.0 mi East 9.2 mph - N/A   Clear
2:15 PM 55.4 °F - 26.6 °F 33% 30.27 in 10.0 mi East 8.1 mph - N/A   Clear
2:35 PM 57.2 °F - 26.6 °F 31% 30.27 in 10.0 mi ENE 8.1 mph - N/A   Clear
2:55 PM 59.0 °F - 26.6 °F 29% 30.27 in 10.0 mi East 6.9 mph - N/A   Clear
3:15 PM 59.0 °F - 26.6 °F 29% 30.27 in 10.0 mi East 8.1 mph - N/A   Clear
3:35 PM 59.0 °F - 28.4 °F 31% 30.26 in 10.0 mi East 8.1 mph - N/A   Clear
3:55 PM 59.0 °F - 28.4 °F 31% 30.26 in 10.0 mi East 8.1 mph - N/A   Clear
4:15 PM 59.0 °F - 28.4 °F 31% 30.26 in 10.0 mi ESE 10.4 mph - N/A   Clear
4:35 PM 59.0 °F - 28.4 °F 31% 30.26 in 10.0 mi East 8.1 mph - N/A   Clear
4:55 PM 59.0 °F - 28.4 °F 31% 30.26 in 10.0 mi East 10.4 mph - N/A   Clear
5:15 PM 59.0 °F - 28.4 °F 31% 30.26 in 10.0 mi East 9.2 mph - N/A   Clear
5:35 PM 55.4 °F - 28.4 °F 36% 30.26 in 10.0 mi East 9.2 mph - N/A   Clear
5:55 PM 55.4 °F - 28.4 °F 36% 30.26 in 10.0 mi East 11.5 mph - N/A   Clear
6:15 PM 53.6 °F - 28.4 °F 38% 30.27 in 10.0 mi East 11.5 mph - N/A   Clear
6:35 PM 51.8 °F - 26.6 °F 38% 30.27 in 10.0 mi East 10.4 mph - N/A   Clear
6:55 PM 50.0 °F - 28.4 °F 43% 30.28 in 10.0 mi East 10.4 mph - N/A   Clear
7:15 PM 50.0 °F - 28.4 °F 43% 30.28 in 10.0 mi East 10.4 mph - N/A   Clear
7:35 PM 48.2 °F - 26.6 °F 43% 30.29 in 10.0 mi East 10.4 mph - N/A   Clear
7:55 PM 46.4 °F 41.5 °F 23.0 °F 40% 30.29 in 10.0 mi East 10.4 mph - N/A   Clear
8:15 PM 46.4 °F 41.5 °F 21.2 °F 37% 30.30 in 10.0 mi ESE 10.4 mph - N/A   Clear
8:35 PM 46.4 °F 41.5 °F 19.4 °F 34% 30.30 in 10.0 mi East 10.4 mph - N/A   Clear
9:15 PM 46.4 °F 41.1 °F 23.0 °F 40% 30.30 in 10.0 mi East 11.5 mph - N/A   Clear
9:35 PM 44.6 °F 39.7 °F 23.0 °F 43% 30.31 in 10.0 mi East 9.2 mph - N/A   Clear
9:55 PM 44.6 °F 38.8 °F 23.0 °F 43% 30.31 in 10.0 mi East 11.5 mph - N/A   Clear
10:15 PM 44.6 °F 38.8 °F 23.0 °F 43% 30.32 in 10.0 mi East 11.5 mph - N/A   Clear
10:35 PM 44.6 °F 38.4 °F 23.0 °F 43% 30.32 in 10.0 mi East 12.7 mph - N/A   Clear
10:55 PM 44.6 °F 38.8 °F 23.0 °F 43% 30.32 in 10.0 mi East 11.5 mph 17.3 mph N/A   Clear
11:15 PM 42.8 °F 35.4 °F 23.0 °F 46% 30.32 in 10.0 mi East 15.0 mph - N/A   Clear
11:35 PM 42.8 °F 35.8 °F 23.0 °F 46% 30.32 in 10.0 mi East 13.8 mph - N/A   Clear
11:55 PM 42.8 °F 35.8 °F 23.0 °F 46% 30.32 in 10.0 mi East 13.8 mph - N/A   Clear